ESMTENTO

Guest
Details From ESMT - Halmstad
To ENTO - TORP
Flight Number -
Tags generated
Created
Modified
Stats Distance 171 nm / 318 km
Max Altitude 14,900 ft / 4,542 m
Waypoints 4
Social Downloads 0
Likes 0
Share VATSIM

Download

Looking for another format? Having issues loading an existing format? Contact us
Advertisement - Login to hide

Notes

Basic altitude profile: - Ascent Rate: 2500ft/min - Ascent Speed: 250kts - Cruise Altitude: 35000ft - Cruise Speed: 420kts - Descent Rate: 1500ft/min - Descent Speed: 250kts Options: - Use NATs: yes - Use PACOTS: yes - Use low airways: yes - Use high airways: yes

Route

ESMT SABAK Z300 TIVOL ENTO

ID Type Via Altitude Latitude Longitude Leg Dist Tot Dist Heading (true) Name
O ESMT APT - 0 ft / 0 m 56.69110˚ 12.82020˚ - 0 nm - Halmstad
SABAK FIX - 14,900 ft / 4,542 m 58.17656˚ 11.64272˚ 96 nm 96 nm 337° / 336° -
TIVOL FIX Z300 (AWY-LO) 9,500 ft / 2,896 m 58.89472˚ 10.65194˚ 53 nm 150 nm 325° / 324° -
O ENTO APT - 0 ft / 0 m 59.18666˚ 10.25860˚ 21 nm 171 nm 325° / 325° TORP

Altitude Profile

Advertisement - Login to hide

Weather


0- 5 10 15 20 25 30 35+ Temperature / ° C

Clouds and Precipitation
Forecast for 2018-05-22 18:00 UTC. Updated 2 hours ago

Ground ~20,000 ft ~40,000 ft Winds

ESMT

Details ICAO ESMT (HAD)
Name Halmstad
Region Sweden
Timezone Europe/Stockholm (UTC+2.0)
Stats Elevation 101 ft / 31 m (AMSL)
Location 56.691097° 12.820203°
Runways 1
Magnetic Variation 3.918° E

METAR

ESMT 221920Z 35003KT CAVOK 19/05 Q1018

Decode

TAF

Not found

Departure Runways

ID Width Length Bearing (true) Bearing (mag) Surface Threshold Offset Overrun Length
01 131 ft / 40 m 7,410 ft / 2,259 m 6.19° 2.27° Asphalt 0 ft / 0 m 0 ft / 0 m
19 131 ft / 40 m 7,410 ft / 2,259 m 186.19° 182.27° Asphalt 0 ft / 0 m 0 ft / 0 m

ENTO

Details ICAO ENTO (TRF)
Name TORP
Region Norway
Timezone Europe/Oslo (UTC+2.0)
Stats Elevation 286 ft / 87 m (AMSL)
Location 59.186662° 10.258596°
Runways 1
Magnetic Variation 3.069° E

METAR

ENTO 221920Z 23007KT CAVOK 18/04 Q1018

Decode

TAF

TAF ENTO 221700Z 2218/2318 23008KT CAVOK BECMG 2301/2303 01010KT BECMG 2310/2312 VRB05KT

Decode

Destination Runways

ID Width Length Bearing (true) Bearing (mag) Surface Threshold Offset Overrun Length
18 148 ft / 45 m 9,820 ft / 2,993 m 179.40° 176.33° Asphalt 1,231 ft / 375 m 0 ft / 0 m
36 148 ft / 45 m 9,820 ft / 2,993 m 359.40° 356.33° Asphalt 1,231 ft / 375 m 0 ft / 0 m

Approach Navaids

Runway Type Ident Frequency Range Bearing (true) Bearing (mag) Slope Elevation
18 Localiser TP 108.30 MHz 18 nm / 33 km 179.33° 176.26° - 312 ft / 95 m (AMSL)
18 Glidescope TP 108.30 MHz 10 nm / 19 km 179.40° 176.33° 3.00° 286 ft / 87 m (AMSL)
36 Localiser SFJ 110.95 MHz 25 nm / 46 km 359.33° 356.26° - 268 ft / 82 m (AMSL)
36 Glidescope SFJ 110.95 MHz 25 nm / 46 km 359.33° 356.26° 3.00° 254 ft / 77 m (AMSL)
36 DME SFJ 110.95 MHz 25 nm / 46 km - - - 279 ft / 85 m (AMSL)

Popular Alternatives